Terminal Aerodrome Forecast
Issued by NWS Grand Forks, ND

Home | Current Version | Previous Version | Graphics & Text | Print | Product List | Glossary On
Versions: 1 2 3 4 5 6 7 8 9 10 11 12 13 14 15 16 17
000
FTUS43 KFGF 231700
TAFFAR
TAF
KFAR 231730Z 2318/2418 36007KT P6SM SCT120
     FM241500 14011KT P6SM BKN120=

USA.gov is the U.S. government's official web portal to all federal, state and local government web resources and services.